Location: Azul
(36.7830°S, 59.8500°W)
Time: 09:49:26
(UTC-03:00)

SPROUT - Visible Passes

Search period start: 22 October 2021 00:00
Search period end: 01 November 2021 00:00
Orbit: 595 x 608 km, 97.9° (Epoch: 22 October)

Date Brightness Start Highest point End Pass type
(mag) Time Alt. Az. Time Alt. Az. Time Alt. Az.
22 Oct ? 02:48:21 10° S 02:49:17 16° S 02:49:17 16° S visible
23 Oct ? 03:00:10 10° S 03:01:08 15° SSW 03:01:08 15° SSW visible
24 Oct ? 03:12:04 10° SSW 03:12:58 14° SSW 03:12:58 14° SSW visible
25 Oct ? 01:47:38 10° SSE 01:48:01 12° SSE 01:48:01 12° SSE visible
25 Oct ? 03:24:06 10° SSW 03:24:48 13° SSW 03:24:48 13° SSW visible
26 Oct ? 01:59:03 10° SSE 01:59:51 15° SSE 01:59:51 15° SSE visible
26 Oct ? 03:36:21 10° SW 03:36:38 11° SW 03:36:38 11° SW visible
27 Oct ? 02:10:33 10° SSE 02:11:41 18° SSE 02:11:41 18° SSE visible
28 Oct ? 02:22:07 10° SSE 02:23:30 20° SSE 02:23:30 20° SSE visible
29 Oct ? 02:33:45 10° S 02:35:19 22° S 02:35:19 22° S visible
30 Oct ? 02:45:27 10° S 02:47:08 22° S 02:47:08 22° S visible
31 Oct ? 02:57:12 10° S 02:58:56 21° SSW 02:58:56 21° SSW visible
